OBJECT XX, 66911

Orbit data source: Space-Track

You're viewing an Uncataloged Satellite

Recently launched and/or uncataloged satellites may have evolving metadata. Metadata may include but not limited to: Owner, Maufacturer, Bus, Motor, and Mission.

OBJECT XX, 66911 is an American satellite in LEO that was delivered to and deployed from the ISS. Unknown objects in Earth's orbit typically refer to objects detected orbiting the Earth but have not yet been identified or cataloged. These objects could be anything from previously untracked satellites, spent rocket stages, debris from satellite collisions, or even natural meteoroids temporarily captured by Earth's gravity.

Loading next visibility...
Identifier
66911, 1998-067XX
Orbit
LEO
Country
Flag of USUS
Related business
None
Manufacturer
Unknown
Mission
Operational spacecraft
Bus & Motor
Unknown
Mass
Unknown
Launch date (UTC)
1998-11-20 (27 years ago)
Launch vehicle
FALCON 9
Launch site
Tyuratam Missile And Space Complex (TTMTR)
Object type
Unknown
Shape & HBR
Unknown
Radar Cross Section
RCS unknown

Expand to show TLE details & history
Last TLE update: 8 hours ago

TLE from 8 hours ago
0 OBJECT XX
1 66911U 98067XX  25353.80422407  .00052143  00000-0  82359-3 0  9993
2 66911  51.6304 107.2150 0003934 254.2011 105.8545 15.52964022  2707
Epoch: 2025-12-19T19:18Z
TLE epoch observation values (Epoch: 2025-12-19T19:18:04.959Z)
Latitude
-0.00006°
Longitude
89.05416°
Altitude
409.549 km
Speed
7.666 km/s
True Right ascension
07h 08m 51s
True Declination
0° 00' 00"
Sunlit
Object was in full shadow at epoch
Visualization orbit readout
Latitude
Unknown
Longitude
Unknown
Altitude
Unknown
Speed
Unknown
Apparent Right ascension
Unknown
Apparent Declination
Unknown
Sunlit
N/A
Visualization observer readout
Local Sidereal Time
02:27:07
Azimuth
Unknown
Elevation
Unknown
Doppler factor
Unknown
Orbital elements
Apogee altitude
411.257 km
Perigee altitude
405.918 km
Semi-major axis
6,786.725 km
Eccentricity
0.00039
Inclination
51.6304°
RAAN
107.215°
Arg. of periapsis
254.2011°
True anomaly
105.89786°
Mean anomaly
105.8545°
Eccentric anomaly
105.87618°
Mean motion
3.88198 °/min
Orbital period
92.74 mins
BSTAR
0.00082359
Loading maneuver chart data...
Computing Atmospheric mass density...

Documentation

Showing up to 5 results
|